Weather in Lekechen

Russia / Sakha (Yakutia) Republic     63°03′38″N   123°58′50″E
temp.,
°C
wind,
m/s
gust,
m/s
humid.,
%
clouds,
%
prec.,
mm/h
press.,
hPa
HPBL,
m
14 april, wed
wed1400:00−12sse3119273 0.0 1011187
03:00−14se3109265 0.0 1010145
06:00−15se3109667 0.0 1009149
09:00−8sse498983 0.0 1007295
12:00−3sse577874 0.0 1006894
15:00−1sse467593 0.1 10051312
18:00−2sse3781100 0.1 1005331
21:00−6se3991100 0.1 1005148
15 april, thu
thu1500:00−6sse3895100 0.1 1004217
03:00−5sw2597100 0.9 1003190
06:00−7w3897100 0.1 1004229
09:00−5wnw4795100 0.3 1004294
12:00−2wnw469181 0.0 1004738
15:00−1wnw4586100 0.1 1005887
18:00−2wnw258799 0.1 1006529
21:00−11sw119217 0.1 100810
16 april, fri
fri1600:00−13ssw2297100 0.0 100814
03:00−7ssw249799 0.1 100779
06:00−11ssw369640 0.1 100778
09:00−4ssw49865 0.1 1006303
12:00−1ssw5982100 0.0 10031056
15:00−1s61281100 0.3 10001356
18:00−2s71590100 0.2 9961382
21:00−2s81692100 0.9 9921232
17 april, sat
sat1700:00−1ssw81893100 1.4 9871215
03:000sw61298100 2.8 986947
06:00−3wsw6137698 0.7 9881054
09:00−4sw5128480 0.7 9891266
12:00−3wsw5128098 0.1 9901629
15:00−3wsw61177100 0.4 9911720
18:00−5wsw6127697 0.3 9921338
21:00−8wsw51282100 0.3 995577
18 april, sun
sun1800:00−10sw51287100 0.1 9971086
03:00−11sw71491100 0.4 9981066
06:00−10wsw71492100 0.6 1000967
09:00−8wsw71292100 1.3 10031065
12:00−5w61092100 0.9 10061279
15:00−6wnw6986100 1.5 10111311
18:00−7wnw51086100 0.3 10141232
21:00−14wsw2297100 0.3 101814